Tracking 31027 objects as of 19-Jul-2025
HD Live streaming from Space Station
objects crossing your sky now

KL-BETA B

Track KL-BETA B now!
10-day predictions


NORAD ID: 49060
Int'l Code: 2021-070B
Perigee: 914.1 km
Apogee: 925.0 km
Inclination: 89.0 °
Period: 103.3 minutes
Semi major axis: 7290 km
RCS: Unknown
Launch date: August 4, 2021
Source: People's Republic of China (PRC)
Launch site: Taiyaun Space Center, China (TSC)
Your satellite tracking list
ICEYE-X27
Track 1 satellite(s)




NASA's NSSDC Master Catalog

Two Line Element Set (TLE):
1 49060U 21070B   25199.90072224  .00000062  00000-0  35968-4 0  9994
2 49060  88.9866 254.8771 0007429  83.9220 276.2802 13.94643456201517
Source of the keplerian elements: AFSPC